TIME,DELAY(SENSOR),PRES,OXYGEN,RAWTEMP,T(OPTODE),TCPHASE,FLUOR,BETA(BETA700),BETA(BETA412),BETA(BETA440),CDOM,C(CSC),ED(ED412.20),ED(ED444.00),ED(ED489.60),ED(ED554.30),LU(LU412.10),LU(LU443.90),LU(LU489.70),LU(LU554.70),COMP,TILTX,TILTY,CHECK
1348888149,5812,902.2500000000000000,33.6084098815918000,556.9710083007812000,4.5797328948974610,56.4758491516113300,55,99,99,78,83,15559,0,0,0,0,2147124562,2147776914,2147570349,2147571666,1009,3,13,46257
1348891745,5808,958.8800048828125000,39.8300590515136700,564.0908813476562000,4.3590431213378910,55.5759696960449200,55,99,101,79,82,15558,0,0,0,0,2147122139,2147780086,2147572745,2147570112,232,3,12,22098
1348895345,5811,974.4799804687500000,40.9171409606933600,565.3142700195312000,4.3210787773132320,55.4271583557128900,56,99,101,77,83,15556,0,0,0,0,2147122176,2147781924,2147574198,2147571081,3541,3,13,44867
1348898945,5812,986.4799804687500000,40.4753494262695300,564.9210815429688000,4.3332819938659670,55.4889488220214840,56,100,100,77,82,15555,0,0,0,0,2147127122,2147775396,2147569600,2147569133,3487,3,13,691
1348902545,5810,989.7800292968750000,40.4798011779785160,565.2993164062500000,4.3215432167053220,55.4952697753906250,55,98,102,77,82,15557,0,0,0,0,2147120749,2147773558,2147569856,2147568896,3464,3,13,12428
1348906145,5809,987.5499877929688000,40.4316902160644500,565.7125854492188000,4.3087139129638670,55.5042304992675800,55,97,100,78,82,15554,0,0,0,0,2147126637,2147777792,2147570349,2147569307,159,3,13,28337
1348909745,5808,990.8800048828125000,40.3105583190918000,565.7656860351562000,4.3070678710937500,55.5213508605957000,55,100,100,77,82,15554,0,0,0,0,2147125056,2147774829,2147574747,2147567789,3414,3,13,37762
1348913345,5808,992.5900268554688000,40.4020996093750000,566.0640258789062000,4.2978100776672360,55.5161514282226560,56,99,100,79,83,15557,0,0,0,0,2147124589,2147772160,2147571136,2147569618,3322,3,13,29716
1348916945,5810,993.0800170898438000,40.2814598083496100,566.6514282226562000,4.2795729637146000,55.5365104675293000,56,100,100,78,83,15553,0,0,0,0,2147122852,2147772333,2147570477,2147568932,54,3,13,29698
1348920545,5810,990.3800048828125000,40.4776306152343750,566.7617187500000000,4.2761478424072270,55.5113105773925800,55,104,100,78,84,15556,0,0,0,0,2147125120,2147772544,2147574683,2147571830,189,3,13,24473
1348924145,5808,989.3900146484375000,41.0683212280273440,568.5416259765625000,4.2208728790283200,55.4428291320800800,55,97,100,78,82,15554,0,0,0,0,2147123318,2147773083,2147572288,2147572507,127,3,13,32991
1348927745,5808,989.1699829101562000,41.1126785278320300,568.8137817382812000,4.2124161720275880,55.4403114318847660,55,101,100,78,84,15553,0,0,0,0,2147125485,2147772041,2147569846,2147571830,3575,3,13,4622
1348931345,5808,991.7999877929688000,41.1028404235839840,568.8427734375000000,4.2115168571472170,55.4432296752929700,55,100,101,77,83,15557,0,0,0,0,2147128265,2147776173,2147574098,2147568091,157,3,13,12526
1348934945,5808,995.5000000000000000,41.0758094787597660,567.1801147460938000,4.2631568908691410,55.4236488342285160,55,98,101,78,84,15550,0,0,0,0,2147126372,2147773723,2147572324,2147573129,154,3,13,33355
1348938545,5810,998.8599853515625000,40.4192810058593750,566.6141967773438000,4.2807269096374510,55.5188789367675800,55,100,101,78,84,15550,0,0,0,0,2147123062,2147776859,2147573430,2147569024,50,3,12,25082
1348942145,5808,1003.4600219726562000,40.1213417053222660,566.4180908203125000,4.2868161201477050,55.5626907348632800,55,99,101,87,83,15552,0,0,0,0,2147123977,2147777718,2147572050,2147569115,398,3,13,62792
1348945745,5809,1000.1599731445312000,39.5542488098144500,566.2429809570312000,4.2922520637512210,55.6445999145507800,55,100,100,77,81,15549,0,0,0,0,2147125723,2147768502,2147574290,2147572388,245,3,13,8476
1348949345,5811,1002.4000244140625000,39.5555305480957000,566.2119140625000000,4.2932190895080570,55.6435012817382800,55,98,102,77,83,15550,0,0,0,0,2147121920,2147776054,2147573942,2147570797,14,3,13,28533
1348952945,5807,1004.0999755859375000,39.5607109069824200,566.4619140625000000,4.2854580879211430,55.6420898437500000,55,100,100,78,83,15549,0,0,0,0,2147125824,2147769426,2147568886,2147571611,242,3,13,37203
1348956545,5810,1000.5700073242188000,39.5394592285156250,566.4544067382812000,4.2856879234313965,55.6464805603027340,54,97,101,79,83,15548,0,0,0,0,2147125979,2147770870,2147575094,2147568722,434,3,13,53331
1348960145,5809,997.9500122070312000,39.8202285766601560,566.9467773437500000,4.2703990936279300,55.6120986938476560,55,106,100,77,81,15549,0,0,0,0,2147126345,2147776146,2147572233,2147569344,159,3,13,43954
1348963745,5810,996.7399902343750000,40.5200195312500000,567.4420776367188000,4.2550220489501950,55.5077705383300800,55,99,101,79,83,15546,0,0,0,0,2147125824,2147773961,2147572672,2147569554,237,3,13,3210
1348967345,5811,997.4799804687500000,40.7060089111328100,568.0479125976562000,4.2362079620361330,55.4871101379394500,55,99,100,78,83,15547,0,0,0,0,2147123547,2147778742,2147569965,2147573568,3361,3,13,23448
1348970945,5809,1000.9699707031250000,41.1830902099609400,567.9130249023438000,4.2403960227966310,55.4190406799316400,55,100,101,78,82,15545,0,0,0,0,2147125604,2147773833,2147572836,2147570605,299,3,13,41368
1348974545,5810,1003.4299926757812000,39.9968986511230500,568.2426147460938000,4.2301621437072750,55.5945205688476560,56,98,101,78,83,15547,0,0,0,0,2147125915,2147778112,2147575835,2147568045,139,3,13,45318
1348978145,5809,1002.7199707031250000,39.3995208740234400,568.2064208984375000,4.2312850952148440,55.6906089782714840,54,97,100,77,83,15543,0,0,0,0,2147124059,2147775433,2147573622,2147570834,325,3,13,54244
1348981745,5810,1005.7700195312500000,39.9837913513183600,566.9694213867188000,4.2696990966796875,55.5827903747558600,55,98,99,77,82,15542,0,0,0,0,2147124562,2147776182,2147574464,2147572864,244,3,13,31259
1348985345,5809,998.5700073242188000,39.3859100341796900,567.2371215820312000,4.2613887786865230,55.6761016845703100,55,99,100,78,82,15541,0,0,0,0,2147125120,2147775140,2147574317,2147571154,65,3,13,54862
1348988945,5809,1000.6599731445312000,40.2476692199707000,567.5095825195312000,4.2529239654541020,55.5547790527343750,56,100,101,80,83,15545,0,0,0,0,2147126363,2147777334,2147573056,2147570002,658,3,13,10030
1348992545,5809,1003.7500000000000000,39.7514686584472660,568.0114746093750000,4.2373371124267580,55.6290206909179700,54,101,100,78,83,15540,0,0,0,0,2147125001,2147772086,2147571739,2147572461,162,3,13,41461
1348996145,5808,1005.4199829101562000,39.6606216430664060,568.0933837890625000,4.2347931861877440,55.6439018249511700,54,98,101,77,83,15539,0,0,0,0,2147124068,2147775149,2147574290,2147572141,3314,3,13,19253
1348999745,5811,1004.2100219726562000,40.4119911193847660,568.1428222656250000,4.2332611083984375,55.5323600769043000,55,98,102,78,83,15541,0,0,0,0,2147124617,2147778194,2147573357,2147570980,3192,3,13,5592
1349003345,5807,1002.7399902343750000,40.1418609619140600,567.8452148437500000,4.2425041198730470,55.5688514709472660,55,100,101,77,83,15538,0,0,0,0,2147125568,2147773897,2147573056,2147568704,161,3,13,34103
1349006945,5809,1000.5900268554688000,40.0516395568847660,567.3613891601562000,4.2575259208679200,55.5797309875488300,55,101,101,78,83,15538,0,0,0,0,2147122614,2147776036,2147573156,2147569389,765,3,13,13427
1349010545,5810,1002.6400146484375000,40.4021415710449200,567.9918823242188000,4.2379460334777830,55.5310401916503900,54,98,101,78,82,15537,0,0,0,0,2147123483,2147774043,2147573156,2147569161,9,3,13,13235
1349014145,5808,998.0000000000000000,41.2700614929199200,568.2280273437500000,4.2306141853332520,55.4076805114746100,55,99,102,79,82,15533,0,0,0,0,2147123456,2147775286,2147577142,2147567862,274,3,13,33054
1349017745,5810,1001.2199707031250000,40.9182701110839840,568.2097778320312000,4.2311778068542480,55.4581489562988300,55,99,100,78,82,15537,0,0,0,0,2147126244,2147772086,2147572672,2147571757,3516,3,13,15765
1349021345,5810,1004.6400146484375000,41.1655006408691400,568.6851806640625000,4.2164101600646970,55.4308395385742200,55,99,99,77,84,15539,0,0,0,0,2147126884,2147773229,2147572946,2147569764,2659,3,13,24127
1349024945,5810,1001.4600219726562000,40.5951805114746100,567.9188842773438000,4.2402148246765140,55.5068817138671900,56,98,100,77,83,15539,0,0,0,0,2147126217,2147773796,2147573147,2147569746,298,3,13,36628
1349028545,5812,1008.5800170898438000,41.0145301818847660,567.6337890625000000,4.2490692138671875,55.4389801025390600,55,99,101,79,82,15538,0,0,0,0,2147124297,2147774948,2147572644,2147568950,3301,3,12,52696
1349032145,5811,1008.3499755859375000,40.4207191467285160,566.9020996093750000,4.2717900276184080,55.5162391662597660,55,99,100,78,83,15536,0,0,0,0,2147125522,2147770852,2147578130,2147570989,140,3,13,13598
1349033155,5809,1008.6799926757812000,40.3587303161621100,567.0789794921875000,4.2662978172302250,55.5345497131347660,55,100,102,77,83,15534,0,0,0,0,2147126656,2147774016,2147578340,2147569325,3575,3,13,58167
